Flag for Austria Weather past 2 weeks in Horn, Lower Austria, Austria

Now
68 °F

Scattered clouds.


Feels Like: 68 °F
Forecast: 52 / 70 °F
Wind: 3 mph from East

Location: Retz

Current Time: Sep 16, 2014 at 3:34:44 PM

Latest Report: Sep 16, 2014 at 2:00 PM


Visibility: 11 mi

Pressure: 30.06 "Hg

Humidity: 69%

Dew point: 57 °F

Location of HornLocation

Historic Weather in Horn — Graph

°F

Horn temperature yesterday

Maximum temperature yesterday: 69 °F (at 3:00 PM)
Minimum temperature yesterday: 58 °F (at 2:00 AM)
Average temperature yesterday: 63 °F

Past Weeks' High & Low Weather Summary

 TemperatureHumidityPressure
High76 °F (Sep 4, 4:00 PM)99% (Sep 14, 9:00 AM)30.09 "Hg (Sep 14, 9:00 AM)
Low54 °F (Sep 2, 3:00 AM)52% (Sep 8, 4:00 PM)29.77 "Hg (Sep 12, 6:00 AM)
Average62 °F83%29.98 "Hg
* Reported Sep 1 2:00 PM — Sep 16 2:00 PM, Horn, Weather by CustomWeather, © 2014

Note: Actual official high and low records may vary slightly from our data, if they occured in-between our weather recording intervals... More about our weather records

Advertising

Horn weather history for previous 24 hours

 ConditionsComfort  
Time TempWeatherWind HumidityBarometerVisibility
2:00 PM
Sep 16
68 °FScattered clouds.3 mph69%30.06 "Hg11 mi
1:00 PM67 °FMild.2 mph71%30.07 "HgN/A
12:00 PM66 °FMild.2 mph77%30.07 "HgN/A
11:00 AM64 °FMild.2 mph80%30.07 "HgN/A
10:00 AM61 °FCool.2 mph85%30.08 "HgN/A
9:00 AM60 °FCool.3 mph87%30.07 "HgN/A
8:00 AM58 °FOvercast.3 mph89%30.07 "Hg6 mi
7:00 AM58 °FOvercast.3 mph89%30.06 "Hg6 mi
6:00 AM58 °FCool.3 mph91%30.05 "HgN/A
5:00 AM58 °FCool.2 mph90%30.05 "HgN/A
4:00 AM58 °FCool.3 mph90%30.06 "HgN/A
3:00 AM58 °FCool.3 mph89%30.06 "HgN/A
2:00 AM59 °FCool.5 mph86%30.05 "HgN/A
1:00 AM60 °FCool.3 mph87%30.05 "HgN/A
12:00 AM60 °FCool.5 mph91%30.06 "HgN/A
11:00 PM
Sep 15
61 °FCool.1 mph83%30.05 "HgN/A
10:00 PM61 °FFog.6 mph91%30.07 "HgN/A
9:00 PM63 °FMild.3 mph92%30.05 "HgN/A
8:00 PM64 °FPassing clouds.3 mph85%30.04 "Hg5 mi
7:00 PM66 °FMild.1 mph83%30.02 "HgN/A
6:00 PM68 °FMild.2 mph76%30.01 "HgN/A
5:00 PM68 °FMild.3 mph75%30.02 "HgN/A
4:00 PM69 °FMild.3 mph75%30.02 "HgN/A
3:00 PM69 °FMild.3 mph74%30.02 "HgN/A
Weather by CustomWeather, © 2014

See weather overviewHow to use our weather pages